New York, NY

10:43 PM EST on February 25, 2017 (GMT -0500)
New York Downtown Manhattan/w

Weather History for KJRB - March, 2014

Change the Weather History Date:

Saturday, March 15, 2014

  Actual Average (KEWR) Record (KEWR)
Temperature  
Mean Temperature 50 °F -  
Max Temperature 57 °F 50 °F 79 °F (1990)
Min Temperature 42 °F 32 °F 14 °F (1993)
Degree Days  
Heating Degree Days 16    
Moisture  
Dew Point 26 °F    
Average Humidity 40    
Maximum Humidity 53    
Minimum Humidity 25    
Precipitation  
Precipitation 0.23 in - - ()
Sea Level Pressure  
Sea Level Pressure 29.84 in    
Wind  
Wind Speed 8 mph (West)    
Max Wind Speed 18 mph    
Max Gust Speed 47 mph    
Visibility 10 miles    
Events      
Averages and records for this station are not official NWS values.
T = Trace of Precipitation, MM = Missing Value Source: NWS Daily Summary

Daily Weather History Graph

Daily Weather History Graph

Search for Another Location

Airport or City:

Trip Planner

Search our weather history database for the weather conditions in past years. The results will help you decide how hot, cold, wet, or windy it might be!

Date:

Astronomy

Mar. 15, 2014 Rise Set
Actual Time 7:07 AM EDT 7:02 PM EDT
Civil Twilight 6:40 AM EDT 7:30 PM EDT
Nautical Twilight 6:08 AM EDT 8:01 PM EDT
Astronomical Twilight 5:36 AM EDT 8:34 PM EDT
Moon 6:19 PM EDT (3/15) 6:18 AM EDT (3/15)
Length of Visible Light 12h 49m
Length of Day
11h 55m
Waxing Gibbous, 99% of the Moon is Illuminated
Mar 15
Waxing Gibbous
Mar 16
Full
Mar 23
Last Quarter
Mar 30
New
Apr 7
First Quarter

Hourly Weather History & Observations

Time (EDT) Temp. Windchill Dew Point Humidity Pressure Visibility Wind Dir Wind Speed Gust Speed Precip Events Conditions
12:15 AM 42.8 °F 38.6 °F 26.6 °F 53% 29.92 in 10.0 mi West 6.9 mph - N/A   Clear
12:35 AM 42.8 °F 38.0 °F 26.6 °F 53% 29.90 in 10.0 mi West 8.1 mph - N/A   Clear
12:55 AM 44.6 °F 40.7 °F 26.6 °F 49% 29.89 in 10.0 mi West 6.9 mph - N/A   Clear
1:15 AM 44.6 °F 41.4 °F 26.6 °F 49% 29.88 in 10.0 mi WNW 5.8 mph - N/A   Partly Cloudy
1:35 AM 44.6 °F 42.2 °F 26.6 °F 49% 29.87 in 10.0 mi WNW 4.6 mph - N/A   Partly Cloudy
1:55 AM 44.6 °F 43.1 °F 26.6 °F 49% 29.86 in 10.0 mi West 3.5 mph - N/A   Partly Cloudy
2:15 AM 44.6 °F 43.1 °F 26.6 °F 49% 29.86 in 10.0 mi West 3.5 mph - N/A   Mostly Cloudy
2:35 AM 44.6 °F 43.1 °F 26.6 °F 49% 29.85 in 10.0 mi WSW 3.5 mph - N/A   Overcast
2:55 AM 44.6 °F 42.2 °F 26.6 °F 49% 29.84 in 10.0 mi WSW 4.6 mph - N/A   Mostly Cloudy
3:15 AM 44.6 °F 40.7 °F 26.6 °F 49% 29.83 in 10.0 mi West 6.9 mph - N/A   Overcast
3:35 AM 44.6 °F 40.7 °F 28.4 °F 53% 29.82 in 10.0 mi West 6.9 mph - N/A   Overcast
3:55 AM 44.6 °F 42.2 °F 28.4 °F 53% 29.80 in 10.0 mi West 4.6 mph - N/A   Overcast
4:15 AM 44.6 °F 41.4 °F 28.4 °F 53% 29.78 in 10.0 mi WNW 5.8 mph - N/A   Overcast
4:35 AM 46.4 °F 41.9 °F 28.4 °F 50% 29.79 in 10.0 mi West 9.2 mph - N/A   Overcast
4:55 AM 46.4 °F 44.3 °F 30.2 °F 53% 29.77 in 10.0 mi West 4.6 mph - N/A   Overcast
5:15 AM 46.4 °F 43.5 °F 30.2 °F 53% 29.77 in 10.0 mi West 5.8 mph - N/A   Overcast
5:35 AM 46.4 °F 41.9 °F 30.2 °F 53% 29.78 in 10.0 mi West 9.2 mph - N/A   Overcast
5:55 AM 46.4 °F 43.5 °F 30.2 °F 53% 29.78 in 10.0 mi WSW 5.8 mph - N/A   Overcast
6:15 AM 48.2 °F - 30.2 °F 50% 29.78 in 10.0 mi West 5.8 mph - N/A   Overcast
6:35 AM 48.2 °F - 30.2 °F 50% 29.78 in 10.0 mi West 5.8 mph - N/A   Overcast
6:55 AM 48.2 °F - 28.4 °F 46% 29.78 in 10.0 mi West 6.9 mph - N/A   Mostly Cloudy
7:15 AM 48.2 °F - 28.4 °F 46% 29.79 in 10.0 mi West 10.4 mph - N/A   Overcast
7:35 AM 48.2 °F - 28.4 °F 46% 29.80 in 10.0 mi West 9.2 mph 16.1 mph N/A   Overcast
7:55 AM 48.2 °F - 28.4 °F 46% 29.81 in 10.0 mi NW 3.5 mph - N/A   Mostly Cloudy
8:15 AM 48.2 °F - 28.4 °F 46% 29.80 in 10.0 mi West 5.8 mph - N/A   Overcast
8:35 AM 48.2 °F - 28.4 °F 46% 29.80 in 10.0 mi West 9.2 mph - N/A   Overcast
8:55 AM 48.2 °F - 28.4 °F 46% 29.79 in 10.0 mi West 6.9 mph - N/A   Overcast
9:15 AM 48.2 °F - 28.4 °F 46% 29.79 in 10.0 mi West 9.2 mph - N/A   Mostly Cloudy
9:35 AM 48.2 °F - 28.4 °F 46% 29.79 in 10.0 mi West 11.5 mph 19.6 mph N/A   Mostly Cloudy
9:55 AM 50.0 °F - 28.4 °F 43% 29.79 in 10.0 mi West 11.5 mph 27.6 mph 0.02 in   Mostly Cloudy
10:15 AM 51.8 °F - 28.4 °F 41% 29.79 in 10.0 mi West 13.8 mph - N/A   Mostly Cloudy
10:35 AM 51.8 °F - 28.4 °F 41% 29.79 in 10.0 mi West 12.7 mph - N/A   Mostly Cloudy
10:55 AM 53.6 °F - 28.4 °F 38% 29.79 in 10.0 mi West 13.8 mph - N/A   Partly Cloudy
11:15 AM 53.6 °F - 28.4 °F 38% 29.79 in 10.0 mi West 12.7 mph 19.6 mph N/A   Clear
11:35 AM 55.4 °F - 28.4 °F 36% 29.79 in 10.0 mi West 16.1 mph 29.9 mph N/A   Clear
11:55 AM 55.4 °F - 30.2 °F 38% 29.79 in 10.0 mi West 15.0 mph 23.0 mph N/A   Partly Cloudy
12:15 PM 55.4 °F - 26.6 °F 33% 29.79 in 10.0 mi West 18.4 mph 27.6 mph 0.01 in   Scattered Clouds
12:35 PM 57.2 °F - 26.6 °F 31% 29.79 in 10.0 mi West 10.4 mph 27.6 mph 0.01 in   Partly Cloudy
12:55 PM 55.4 °F - 28.4 °F 36% 29.79 in 10.0 mi West 15.0 mph 29.9 mph 0.01 in   Mostly Cloudy
1:15 PM 55.4 °F - 28.4 °F 36% 29.80 in 10.0 mi West 6.9 mph 24.2 mph N/A   Scattered Clouds
1:35 PM 57.2 °F - 26.6 °F 31% 29.80 in 10.0 mi West 17.3 mph 29.9 mph N/A   Partly Cloudy
1:55 PM 57.2 °F - 26.6 °F 31% 29.80 in 10.0 mi WNW 9.2 mph 26.5 mph N/A   Scattered Clouds
2:15 PM 55.4 °F - 24.8 °F 31% 29.80 in 10.0 mi North 4.6 mph - N/A   Scattered Clouds
2:35 PM 57.2 °F - 24.8 °F 29% 29.80 in 10.0 mi West 15.0 mph 47.2 mph 0.11 in   Partly Cloudy
2:55 PM 57.2 °F - 24.8 °F 29% 29.79 in 10.0 mi West 16.1 mph 40.3 mph 0.20 in   Partly Cloudy
3:15 PM 57.2 °F - 24.8 °F 29% 29.80 in 10.0 mi West 16.1 mph 26.5 mph N/A   Scattered Clouds
3:35 PM 57.2 °F - 21.2 °F 25% 29.80 in 10.0 mi WNW 8.1 mph 23.0 mph N/A   Partly Cloudy
3:55 PM 57.2 °F - 21.2 °F 25% 29.80 in 10.0 mi West 18.4 mph 26.5 mph N/A   Partly Cloudy
4:15 PM 57.2 °F - 23.0 °F 27% 29.81 in 10.0 mi West 8.1 mph 25.3 mph N/A   Scattered Clouds
4:35 PM 57.2 °F - 23.0 °F 27% 29.81 in 10.0 mi West 17.3 mph 26.5 mph N/A   Scattered Clouds
4:55 PM 57.2 °F - 23.0 °F 27% 29.82 in 10.0 mi West 10.4 mph 23.0 mph N/A   Partly Cloudy
5:15 PM 57.2 °F - 24.8 °F 29% 29.83 in 10.0 mi WNW 6.9 mph - N/A   Partly Cloudy
5:35 PM 57.2 °F - 23.0 °F 27% 29.84 in 10.0 mi West 10.4 mph 17.3 mph N/A   Clear
5:55 PM 57.2 °F - 23.0 °F 27% 29.84 in 10.0 mi West 13.8 mph 20.7 mph N/A   Partly Cloudy
6:15 PM 57.2 °F - 24.8 °F 29% 29.86 in 10.0 mi West 11.5 mph 18.4 mph N/A   Scattered Clouds
6:35 PM 55.4 °F - 24.8 °F 31% 29.87 in 10.0 mi WNW 9.2 mph - N/A   Partly Cloudy
6:55 PM 53.6 °F - 23.0 °F 30% 29.88 in 10.0 mi West 10.4 mph 23.0 mph N/A   Clear
7:15 PM 53.6 °F - 23.0 °F 30% 29.89 in 10.0 mi West 8.1 mph 23.0 mph N/A   Partly Cloudy
7:35 PM 53.6 °F - 24.8 °F 33% 29.90 in 10.0 mi West 8.1 mph 19.6 mph N/A   Partly Cloudy
7:55 PM 51.8 °F - 24.8 °F 35% 29.91 in 10.0 mi West 8.1 mph - N/A   Scattered Clouds
8:15 PM 51.8 °F - 24.8 °F 35% 29.92 in 10.0 mi West 8.1 mph - N/A   Partly Cloudy
8:35 PM 51.8 °F - 24.8 °F 35% 29.93 in 10.0 mi West 8.1 mph 17.3 mph N/A   Clear
8:55 PM 51.8 °F - 24.8 °F 35% 29.94 in 10.0 mi NW 5.8 mph - N/A   Clear
9:15 PM 50.0 °F - 24.8 °F 37% 29.96 in 10.0 mi NNW 4.6 mph - N/A   Clear
9:35 PM 50.0 °F - 23.0 °F 35% 29.96 in 10.0 mi NNW 4.6 mph - N/A   Clear
9:55 PM 48.2 °F - 23.0 °F 37% 29.97 in 10.0 mi WNW 3.5 mph - N/A   Clear
10:15 PM 48.2 °F - 24.8 °F 40% 29.98 in 10.0 mi West 6.9 mph - N/A   Clear
10:35 PM 48.2 °F - 24.8 °F 40% 29.98 in 10.0 mi West 4.6 mph - N/A   Clear
10:55 PM 48.2 °F - 24.8 °F 40% 29.99 in 10.0 mi NNW 3.5 mph - N/A   Clear
11:15 PM 46.4 °F 44.3 °F 26.6 °F 46% 30.00 in 10.0 mi NW 4.6 mph - N/A   Clear
11:35 PM 46.4 °F - 26.6 °F 46% 30.00 in 10.0 mi Calm Calm - N/A   Clear
11:55 PM 46.4 °F 43.5 °F 26.6 °F 46% 30.01 in 10.0 mi WNW 5.8 mph - N/A   Clear